map of CUN home
Great Circle Mapper logo
CUN - Airport
Location
City:  Cancún, Quintana Roo, México
Name:Cancún International Airport
ICAO / IATA:MMUN / CUN

Details
Type:Airport (Aerodrome, Airfield)
Use:Public/Civil, International (customs port of entry)
Latitude:21°02'12"N (21.036528)
Longitude:86°52'37"W (-86.877082)
Datum:WGS 1984
Elevation:20 ft (6 m)
Variation:1.58°W (WMM2015 magnetic declination)
-0.13° annual change
Runways:1
Longest:11483 × 197 ft (3500 × 60 m), paved

Time
Time Zone:UTC-6 (DST-5)
Local Time:

Weather
METAR:MMUN 280644Z 00000KT 7SM FEW015 BKN300 24/23 A2994 RMK 8/508
TAF:MMUN 280515Z 2806/2912 12005KT P6SM SCT015 BKN300 TX32/2820Z TN24/2812Z
FM281600 07010KT P6SM BKN015 BKN300
TEMPO 2821/2901 5SM RA BKN015CB BKN300

Related Locations
Nearby:
Farthest:CCK: 11776 mi / 18952 km
West Island (Pulau Panjang) [Cocos (Keeling) Islands], CC

Find:

   beyond  
but within

Other Information
Maps:
NOTAMs:
Links:
Sources:

  
flag of México   

Sectional Chart

Flight Planning
at skyvector.com

Satellite Image

Google Maps Satellite view

 

Copyright © 2004-2015 Karl L. Swartz. All rights reserved.
The Great Circle Mapper name and logo are trademarks of the Great Circle Mapper.
All other trademarks mentioned herein belong to their respective owners.
Please see credits for attibutions and further copyright information.

  Follow gcmap on Facebook Follow gcmap on Twitter Follow gcmap on Google+

hCard Microformat

Geo Microformat